Location: Cormont
(50.5693°N, 1.7416°E)
Time: 14:52:34
(UTC+00:00)

STARLINK-43 - Pass Details

Date: 21 October 2019
Orbit: 478 x 481 km, 53.0° (Epoch: 12 November)

Event Time Altitude Azimuth Distance (km) Brightness Sun altitude
Rises 18:31:24 0° 289° (WNW) 2,538 8.5 -16.8°
Reaches altitude 10° 18:33:33 10° 289° (WNW) 1,657 7.2 -17.2°
Maximum altitude 18:37:18 84° 202° (SSW) 488 3.3 -17.8°
Enters shadow 18:38:20 46° 118° (ESE) 654 3.6 -17.9°
